Weather History for Destin, FL

Change the Weather History Date:

Thursday, October 24, 2013

  Actual Average Record
Temperature  
Mean Temperature 64 °F -  
Max Temperature 73 °F 75 °F 84 °F (2012)
Min Temperature 55 °F 59 °F 46 °F (1999)
Degree Days  
Heating Degree Days 1    
Growing Degree Days 14 (Base 50)    
Moisture  
Dew Point 47 °F    
Average Humidity 55    
Maximum Humidity 70    
Minimum Humidity 34    
Precipitation  
Precipitation 0.00 in - - ()
Sea Level Pressure  
Sea Level Pressure 30.17 in    
Wind  
Wind Speed 6 mph (NE)    
Max Wind Speed 12 mph    
Max Gust Speed -    
Visibility 10 miles    
Events      
Averages and records for this station are not official NWS values.
T = Trace of Precipitation, MM = Missing Value Source: NWS Daily Summary

Daily Weather History Graph

Daily Weather History Graph

Search for Another Location

Airport:

Trip Planner

Search our weather history database for the weather conditions in past years. The results will help you decide how hot, cold, wet, or windy it might be!

Date:

Astronomy

Oct. 24, 2013 Rise Set
Actual Time 6:54 AM CDT 6:05 PM CDT
Civil Twilight 6:29 AM CDT 6:29 PM CDT
Nautical Twilight 6:01 AM CDT 6:57 PM CDT
Astronomical Twilight 5:33 AM CDT 7:25 PM CDT
Moon 10:37 PM CDT (10/24) 11:46 AM CDT (10/24)
Length of Visible Light 11h 59m
Length of Day
11h 10m
Waning Gibbous, 71% of the Moon is Illuminated
Oct 24
Waning Gibbous
Oct 26
Last Quarter
Nov 3
New
Nov 9
First Quarter
Nov 17
Full

Hourly Weather History & Observations

Time (CDT) Temp. Dew Point Humidity Pressure Visibility Wind Dir Wind Speed Gust Speed Precip Events Conditions
12:53 AM 61.0 °F 43.0 °F 52% 30.11 in 10.0 mi North 11.5 mph - N/A   Clear
1:53 AM 61.0 °F 42.1 °F 50% 30.11 in 10.0 mi North 10.4 mph - N/A   Clear
2:53 AM 59.0 °F 41.0 °F 51% 30.12 in 10.0 mi North 6.9 mph - N/A   Clear
3:53 AM 57.0 °F 42.1 °F 57% 30.13 in 10.0 mi ENE 3.5 mph - N/A   Clear
4:53 AM 55.9 °F 43.0 °F 62% 30.15 in 10.0 mi ENE 4.6 mph - N/A   Clear
5:53 AM 55.9 °F 44.1 °F 64% 30.17 in 10.0 mi East 4.6 mph - N/A   Clear
6:53 AM 55.9 °F 43.0 °F 62% 30.18 in 10.0 mi ENE 4.6 mph - N/A   Clear
7:53 AM 59.0 °F 45.0 °F 60% 30.21 in 10.0 mi NE 5.8 mph - N/A   Clear
8:53 AM 61.0 °F - N/A% 30.23 in 10.0 mi East 9.2 mph - N/A   Clear
9:53 AM 63.0 °F - N/A% 30.23 in 10.0 mi ENE 8.1 mph - N/A   Clear
10:53 AM 66.0 °F - N/A% 30.23 in 10.0 mi Variable 6.9 mph - N/A   Clear
11:53 AM 69.1 °F - N/A% 30.21 in 10.0 mi East 4.6 mph - N/A   Clear
12:53 PM 71.1 °F - N/A% 30.18 in 10.0 mi Calm Calm - N/A   Clear
1:53 PM 72.0 °F - N/A% 30.16 in 10.0 mi SSW 5.8 mph - N/A   Clear
2:53 PM 73.0 °F - N/A% 30.14 in 10.0 mi South 4.6 mph - N/A   Clear
3:53 PM 73.0 °F 43.0 °F 34% 30.14 in 10.0 mi SSW 4.6 mph - N/A   Clear
4:53 PM 72.0 °F 46.0 °F 40% 30.15 in 10.0 mi WSW 4.6 mph - N/A   Clear
5:53 PM 71.1 °F 50.0 °F 47% 30.15 in 10.0 mi WSW 4.6 mph - N/A   Clear
6:53 PM 71.1 °F 50.0 °F 47% 30.15 in 10.0 mi WSW 3.5 mph - N/A   Clear
7:53 PM 70.0 °F 53.1 °F 55% 30.17 in 10.0 mi Calm Calm - N/A   Clear
8:53 PM 64.0 °F 54.0 °F 70% 30.18 in 10.0 mi Calm Calm - N/A   Clear
9:53 PM 66.9 °F 55.0 °F 66% 30.20 in 10.0 mi Variable 3.5 mph - N/A   Clear
10:53 PM 68.0 °F 53.1 °F 59% 30.20 in 10.0 mi WNW 4.6 mph - N/A   Clear
11:53 PM 64.0 °F 53.1 °F 67% 30.19 in 10.0 mi North 3.5 mph - N/A   Clear